Time,TemperatureF,DewpointF,PressureIn,WindDirection,WindDirectionDegrees,WindSpeedMPH,WindSpeedGustMPH,Humidity,HourlyPrecipIn,Conditions,Clouds,dailyrainin,SoftwareType,DateUTC
2013-09-06 00:02:00,69.0,62.9,30.03,ESE,123,4.0,4.0,81,0.00,,SKC,0.00,VWS V14.01,2013-09-06 05:02:00,
2013-09-06 00:07:00,69.0,62.9,30.03,ESE,122,0.0,4.0,81,0.00,,SKC,0.00,VWS V14.01,2013-09-06 05:07:00,
2013-09-06 00:12:00,68.9,62.8,30.03,East,101,0.0,6.0,81,0.00,,SKC,0.00,VWS V14.01,2013-09-06 05:12:00,
2013-09-06 00:17:00,68.8,63.1,30.03,ESE,103,0.0,6.0,82,0.00,,SKC,0.00,VWS V14.01,2013-09-06 05:17:00,
2013-09-06 00:22:00,68.7,63.0,30.03,ESE,103,0.0,6.0,82,0.00,,SKC,0.00,VWS V14.01,2013-09-06 05:22:00,
2013-09-06 00:27:00,68.5,62.8,30.03,ESE,119,5.0,6.0,82,0.00,,SKC,0.00,VWS V14.01,2013-09-06 05:27:00,
2013-09-06 00:32:00,68.5,63.1,30.03,ESE,103,0.0,5.0,83,0.00,,SKC,0.00,VWS V14.01,2013-09-06 05:32:00,
2013-09-06 00:37:00,68.4,63.0,30.03,East,101,1.0,5.0,83,0.00,,SKC,0.00,VWS V14.01,2013-09-06 05:37:00,
2013-09-06 00:42:00,68.4,63.0,30.03,East,101,1.0,5.0,83,0.00,,SKC,0.00,VWS V14.01,2013-09-06 05:42:00,
2013-09-06 00:47:00,68.3,62.9,30.03,ESE,103,0.0,5.0,83,0.00,,SKC,0.00,VWS V14.01,2013-09-06 05:47:00,
2013-09-06 00:52:00,68.3,63.3,30.03,ESE,107,2.0,5.0,84,0.00,,SKC,0.00,VWS V14.01,2013-09-06 05:52:00,
2013-09-06 00:57:00,68.2,63.2,30.03,ESE,107,0.0,5.0,84,0.00,,SKC,0.00,VWS V14.01,2013-09-06 05:57:00,
2013-09-06 01:02:00,68.1,63.1,30.03,ESE,107,0.0,1.0,84,0.00,,SKC,0.00,VWS V14.01,2013-09-06 06:02:00,
2013-09-06 01:07:00,67.9,62.9,30.04,East,96,0.0,4.0,84,0.00,,SKC,0.00,VWS V14.01,2013-09-06 06:07:00,
2013-09-06 01:12:00,67.7,62.7,30.04,East,96,0.0,4.0,84,0.00,,SKC,0.00,VWS V14.01,2013-09-06 06:12:00,
2013-09-06 01:17:00,67.6,62.9,30.04,East,96,0.0,4.0,85,0.00,,SKC,0.00,VWS V14.01,2013-09-06 06:17:00,
2013-09-06 01:22:00,67.4,63.1,30.03,ESE,108,4.0,5.0,86,0.00,,SKC,0.00,VWS V14.01,2013-09-06 06:22:00,
2013-09-06 01:27:00,67.3,63.0,30.03,ESE,113,0.0,6.0,86,0.00,,SKC,0.00,VWS V14.01,2013-09-06 06:27:00,
2013-09-06 01:32:00,67.3,63.3,30.03,ESE,109,0.0,4.0,87,0.00,,SKC,0.00,VWS V14.01,2013-09-06 06:32:00,
2013-09-06 01:37:00,67.3,63.3,30.03,ESE,103,0.0,4.0,87,0.00,,SKC,0.00,VWS V14.01,2013-09-06 06:37:00,
2013-09-06 01:42:00,67.2,63.2,30.03,ESE,103,1.0,4.0,87,0.00,,SKC,0.00,VWS V14.01,2013-09-06 06:42:00,
2013-09-06 01:47:00,67.1,63.1,30.03,ESE,106,5.0,5.0,87,0.00,,SKC,0.00,VWS V14.01,2013-09-06 06:47:00,
2013-09-06 01:52:00,67.2,63.5,30.03,ESE,109,0.0,5.0,88,0.00,,SKC,0.00,VWS V14.01,2013-09-06 06:52:00,
2013-09-06 01:57:00,67.2,63.5,30.03,ESE,109,1.0,5.0,88,0.00,,SKC,0.00,VWS V14.01,2013-09-06 06:57:00,
2013-09-06 02:02:00,67.3,63.6,30.02,East,101,1.0,6.0,88,0.00,,SKC,0.00,VWS V14.01,2013-09-06 07:02:00,
2013-09-06 02:07:00,67.3,63.6,30.02,ESE,102,0.0,6.0,88,0.00,,SKC,0.00,VWS V14.01,2013-09-06 07:07:00,
2013-09-06 02:12:00,67.3,63.6,30.03,ESE,102,0.0,6.0,88,0.00,,SKC,0.00,VWS V14.01,2013-09-06 07:12:00,
2013-09-06 02:17:00,67.2,63.5,30.03,ESE,102,0.0,6.0,88,0.00,,SKC,0.00,VWS V14.01,2013-09-06 07:17:00,
2013-09-06 02:22:00,67.2,63.8,30.03,ESE,102,0.0,6.0,89,0.00,,SKC,0.00,VWS V14.01,2013-09-06 07:22:00,
2013-09-06 02:27:00,67.2,63.8,30.03,ESE,102,0.0,6.0,89,0.00,,SKC,0.00,VWS V14.01,2013-09-06 07:27:00,
2013-09-06 02:32:00,67.2,63.8,30.03,ESE,102,0.0,2.0,89,0.00,,SKC,0.00,VWS V14.01,2013-09-06 07:32:00,
2013-09-06 02:37:00,67.1,64.1,30.03,ESE,102,0.0,2.0,90,0.00,,SKC,0.00,VWS V14.01,2013-09-06 07:37:00,
2013-09-06 02:42:00,67.2,64.2,30.03,ESE,102,0.0,5.0,90,0.00,,SKC,0.00,VWS V14.01,2013-09-06 07:42:00,
2013-09-06 02:47:00,67.2,64.2,30.03,ESE,102,0.0,5.0,90,0.00,,SKC,0.00,VWS V14.01,2013-09-06 07:47:00,
2013-09-06 02:52:00,67.2,64.2,30.02,ESE,102,0.0,5.0,90,0.00,,SKC,0.00,VWS V14.01,2013-09-06 07:52:00,
2013-09-06 02:57:00,67.2,64.5,30.02,ESE,103,0.0,5.0,91,0.00,,SKC,0.00,VWS V14.01,2013-09-06 07:57:00,
2013-09-06 03:02:00,67.1,64.4,30.02,ESE,103,1.0,1.0,91,0.00,,SKC,0.00,VWS V14.01,2013-09-06 08:02:00,
2013-09-06 03:07:00,67.1,64.4,30.02,ESE,103,0.0,4.0,91,0.00,,SKC,0.00,VWS V14.01,2013-09-06 08:07:00,
2013-09-06 03:12:00,67.1,64.4,30.02,ESE,103,1.0,4.0,91,0.00,,SKC,0.00,VWS V14.01,2013-09-06 08:12:00,
2013-09-06 03:17:00,67.1,64.4,30.02,ESE,103,2.0,4.0,91,0.00,,SKC,0.00,VWS V14.01,2013-09-06 08:17:00,
2013-09-06 03:22:00,67.2,64.8,30.02,ESE,103,0.0,4.0,92,0.00,,SKC,0.00,VWS V14.01,2013-09-06 08:22:00,
2013-09-06 03:27:00,67.2,64.8,30.02,ESE,103,0.0,4.0,92,0.00,,SKC,0.00,VWS V14.01,2013-09-06 08:27:00,
2013-09-06 03:32:00,67.2,64.8,30.02,ESE,103,0.0,1.0,92,0.00,,SKC,0.00,VWS V14.01,2013-09-06 08:32:00,
2013-09-06 03:37:00,67.3,64.9,30.02,ESE,103,0.0,2.0,92,0.00,,SKC,0.00,VWS V14.01,2013-09-06 08:37:00,
2013-09-06 03:42:00,67.4,65.0,30.02,ESE,103,0.0,2.0,92,0.00,,SKC,0.00,VWS V14.01,2013-09-06 08:42:00,
2013-09-06 03:47:00,67.5,65.1,30.02,ESE,103,1.0,2.0,92,0.00,,SKC,0.00,VWS V14.01,2013-09-06 08:47:00,
2013-09-06 03:52:00,67.6,65.2,30.01,ESE,113,0.0,4.0,92,0.00,,SKC,0.00,VWS V14.01,2013-09-06 08:52:00,
2013-09-06 03:57:00,67.7,65.3,30.01,ESE,114,0.0,6.0,92,0.00,,SKC,0.00,VWS V14.01,2013-09-06 08:57:00,
2013-09-06 04:02:00,67.8,65.4,30.02,ESE,117,0.0,2.0,92,0.00,,SKC,0.00,VWS V14.01,2013-09-06 09:02:00,
2013-09-06 04:07:00,67.9,65.5,30.01,ESE,116,0.0,2.0,92,0.00,,SKC,0.00,VWS V14.01,2013-09-06 09:07:00,
2013-09-06 04:12:00,68.0,65.6,30.01,ESE,116,0.0,4.0,92,0.00,,SKC,0.00,VWS V14.01,2013-09-06 09:12:00,
2013-09-06 04:17:00,68.1,66.0,30.01,East,100,0.0,6.0,93,0.00,,SKC,0.00,VWS V14.01,2013-09-06 09:17:00,
2013-09-06 04:22:00,68.1,65.7,30.01,East,100,0.0,6.0,92,0.00,,SKC,0.00,VWS V14.01,2013-09-06 09:22:00,
2013-09-06 04:27:00,68.2,65.8,30.01,East,100,0.0,6.0,92,0.00,,SKC,0.00,VWS V14.01,2013-09-06 09:27:00,
2013-09-06 04:32:00,68.2,65.8,30.00,East,101,0.0,5.0,92,0.00,,SKC,0.00,VWS V14.01,2013-09-06 09:32:00,
2013-09-06 04:37:00,68.2,65.8,30.00,East,101,0.0,5.0,92,0.00,,SKC,0.00,VWS V14.01,2013-09-06 09:37:00,
2013-09-06 04:42:00,68.1,66.0,30.01,East,101,0.0,5.0,93,0.00,,SKC,0.00,VWS V14.01,2013-09-06 09:42:00,
2013-09-06 04:47:00,68.1,66.0,30.01,East,101,0.0,5.0,93,0.00,,SKC,0.00,VWS V14.01,2013-09-06 09:47:00,
2013-09-06 04:52:00,68.1,66.0,30.01,East,101,0.0,5.0,93,0.00,,SKC,0.00,VWS V14.01,2013-09-06 09:52:00,
2013-09-06 04:57:00,68.1,66.0,30.01,East,101,0.0,5.0,93,0.00,,SKC,0.00,VWS V14.01,2013-09-06 09:57:00,
2013-09-06 05:02:00,68.1,66.3,30.01,East,101,0.0,1.0,94,0.00,,SKC,0.00,VWS V14.01,2013-09-06 10:02:00,
2013-09-06 05:07:00,68.2,66.4,30.00,East,101,0.0,4.0,94,0.00,,SKC,0.00,VWS V14.01,2013-09-06 10:07:00,
2013-09-06 05:12:00,68.3,66.5,30.00,East,101,0.0,4.0,94,0.00,,SKC,0.00,VWS V14.01,2013-09-06 10:12:00,
2013-09-06 05:17:00,68.3,66.5,30.00,East,101,0.0,4.0,94,0.00,,SKC,0.00,VWS V14.01,2013-09-06 10:17:00,
2013-09-06 05:22:00,68.3,66.5,30.00,East,101,0.0,4.0,94,0.00,,SKC,0.00,VWS V14.01,2013-09-06 10:22:00,
2013-09-06 05:27:00,68.3,66.2,30.00,ESE,111,2.0,4.0,93,0.00,,SKC,0.00,VWS V14.01,2013-09-06 10:27:00,
2013-09-06 05:32:00,68.3,66.2,30.00,ESE,113,0.0,4.0,93,0.00,,SKC,0.00,VWS V14.01,2013-09-06 10:32:00,
2013-09-06 05:37:00,68.4,66.6,30.00,ESE,105,0.0,4.0,94,0.00,,SKC,0.00,VWS V14.01,2013-09-06 10:37:00,
2013-09-06 05:42:00,68.4,66.6,30.00,ESE,104,0.0,4.0,94,0.00,,SKC,0.00,VWS V14.01,2013-09-06 10:42:00,
2013-09-06 05:47:00,68.5,66.7,29.99,ESE,107,1.0,5.0,94,0.00,,SKC,0.00,VWS V14.01,2013-09-06 10:47:00,
2013-09-06 05:52:00,68.6,66.8,29.99,ESE,106,0.0,5.0,94,0.00,,SKC,0.00,VWS V14.01,2013-09-06 10:52:00,
2013-09-06 05:57:00,68.6,66.8,29.99,ESE,113,0.0,6.0,94,0.00,,SKC,0.00,VWS V14.01,2013-09-06 10:57:00,
2013-09-06 06:02:00,68.6,66.8,29.99,ESE,113,2.0,6.0,94,0.00,,SKC,0.00,VWS V14.01,2013-09-06 11:02:00,
2013-09-06 06:07:00,68.6,66.8,29.99,ESE,111,0.0,6.0,94,0.00,,SKC,0.00,VWS V14.01,2013-09-06 11:07:00,
2013-09-06 06:12:00,68.6,66.8,29.99,ESE,111,0.0,6.0,94,0.00,,SKC,0.00,VWS V14.01,2013-09-06 11:12:00,
2013-09-06 06:17:00,68.7,66.9,29.99,ESE,111,0.0,6.0,94,0.00,,SKC,0.00,VWS V14.01,2013-09-06 11:17:00,
2013-09-06 06:22:00,68.7,66.9,29.99,ESE,112,1.0,6.0,94,0.00,,SKC,0.00,VWS V14.01,2013-09-06 11:22:00,
2013-09-06 06:27:00,68.7,66.9,29.99,ESE,112,0.0,6.0,94,0.00,,SKC,0.00,VWS V14.01,2013-09-06 11:27:00,
2013-09-06 06:32:00,68.7,66.9,29.99,ESE,112,2.0,4.0,94,0.00,,SKC,0.00,VWS V14.01,2013-09-06 11:32:00,
2013-09-06 06:37:00,68.7,66.9,29.99,ESE,112,4.0,4.0,94,0.00,,SKC,0.00,VWS V14.01,2013-09-06 11:37:00,
2013-09-06 06:42:00,68.7,66.9,29.98,ESE,112,0.0,4.0,94,0.00,,SKC,0.00,VWS V14.01,2013-09-06 11:42:00,
2013-09-06 06:47:00,68.7,66.9,29.98,ESE,111,4.0,4.0,94,0.00,,SKC,0.00,VWS V14.01,2013-09-06 11:47:00,
2013-09-06 06:52:00,68.7,66.9,29.98,East,98,0.0,5.0,94,0.00,,SKC,0.00,VWS V14.01,2013-09-06 11:52:00,
2013-09-06 06:57:00,68.8,67.0,29.97,East,84,0.0,5.0,94,0.00,,SKC,0.00,VWS V14.01,2013-09-06 11:57:00,
2013-09-06 07:02:00,68.9,67.1,29.97,ESE,114,0.0,5.0,94,0.00,,SKC,0.00,VWS V14.01,2013-09-06 12:02:00,
2013-09-06 07:07:00,68.9,67.1,29.97,ESE,116,1.0,5.0,94,0.00,,SKC,0.00,VWS V14.01,2013-09-06 12:07:00,
2013-09-06 07:12:00,69.0,67.2,29.97,ESE,115,0.0,6.0,94,0.00,,SKC,0.00,VWS V14.01,2013-09-06 12:12:00,
2013-09-06 07:17:00,69.1,67.3,29.97,ESE,113,1.0,6.0,94,0.00,,SKC,0.00,VWS V14.01,2013-09-06 12:17:00,
2013-09-06 07:22:00,69.2,67.4,29.96,ESE,113,0.0,6.0,94,0.00,,SKC,0.00,VWS V14.01,2013-09-06 12:22:00,
2013-09-06 07:27:00,69.3,67.5,29.97,ESE,117,1.0,6.0,94,0.00,,SKC,0.00,VWS V14.01,2013-09-06 12:27:00,
2013-09-06 07:32:00,69.5,67.7,29.96,ESE,117,0.0,0.0,94,0.00,,SKC,0.00,VWS V14.01,2013-09-06 12:32:00,
2013-09-06 07:37:00,69.8,68.0,29.96,ESE,119,0.0,4.0,94,0.00,,SKC,0.00,VWS V14.01,2013-09-06 12:37:00,
2013-09-06 07:42:00,70.0,67.9,29.96,East,91,0.0,5.0,93,0.00,,SKC,0.00,VWS V14.01,2013-09-06 12:42:00,
2013-09-06 07:47:00,70.1,68.0,29.96,ESE,112,1.0,5.0,93,0.00,,SKC,0.00,VWS V14.01,2013-09-06 12:47:00,
2013-09-06 07:52:00,70.2,68.1,29.96,ESE,110,0.0,5.0,93,0.00,,SKC,0.00,VWS V14.01,2013-09-06 12:52:00,
2013-09-06 07:57:00,70.4,68.0,29.96,ESE,105,4.0,6.0,92,0.00,,SKC,0.00,VWS V14.01,2013-09-06 12:57:00,
2013-09-06 08:02:00,70.8,68.4,29.96,ESE,112,0.0,5.0,92,0.00,,SKC,0.00,VWS V14.01,2013-09-06 13:02:00,
2013-09-06 08:07:00,71.2,68.4,29.96,ESE,116,1.0,7.0,91,0.00,,SKC,0.00,VWS V14.01,2013-09-06 13:07:00,
2013-09-06 08:12:00,71.4,68.3,29.95,ESE,111,0.0,7.0,90,0.00,,SKC,0.00,VWS V14.01,2013-09-06 13:12:00,
2013-09-06 08:17:00,71.6,68.5,29.95,ESE,107,4.0,7.0,90,0.00,,SKC,0.00,VWS V14.01,2013-09-06 13:17:00,
2013-09-06 08:22:00,71.7,68.6,29.95,ESE,119,0.0,7.0,90,0.00,,SKC,0.00,VWS V14.01,2013-09-06 13:22:00,
2013-09-06 08:27:00,71.8,68.4,29.94,ESE,112,1.0,7.0,89,0.00,,SKC,0.00,VWS V14.01,2013-09-06 13:27:00,
2013-09-06 08:32:00,71.9,68.8,29.95,ESE,117,2.0,4.0,90,0.00,,SKC,0.00,VWS V14.01,2013-09-06 13:32:00,
2013-09-06 08:36:00,72.1,68.7,29.94,ESE,110,1.0,5.0,89,0.00,,SKC,0.00,VWS V14.01,2013-09-06 13:36:00,
2013-09-06 08:41:00,72.3,68.9,29.94,SSE,162,0.0,7.0,89,0.00,,SKC,0.00,VWS V14.01,2013-09-06 13:41:00,
2013-09-06 08:46:00,72.5,68.8,29.94,ESE,107,0.0,7.0,88,0.00,,SKC,0.00,VWS V14.01,2013-09-06 13:46:00,
2013-09-06 08:51:00,72.7,68.9,29.94,ENE,66,0.0,7.0,88,0.00,,SKC,0.00,VWS V14.01,2013-09-06 13:51:00,
2013-09-06 08:56:00,73.3,69.2,29.94,SE,128,0.0,7.0,87,0.00,,SKC,0.00,VWS V14.01,2013-09-06 13:56:00,
2013-09-06 09:01:00,74.0,69.6,29.94,ESE,109,0.0,9.0,86,0.00,,SKC,0.00,VWS V14.01,2013-09-06 14:01:00,
2013-09-06 09:06:00,74.4,69.6,29.94,ESE,109,7.0,9.0,85,0.00,,SKC,0.00,VWS V14.01,2013-09-06 14:06:00,
2013-09-06 09:11:00,74.3,69.5,29.94,SE,126,0.0,9.0,85,0.00,,SKC,0.00,VWS V14.01,2013-09-06 14:11:00,
2013-09-06 09:16:00,74.6,69.4,29.94,East,96,2.0,9.0,84,0.00,,SKC,0.00,VWS V14.01,2013-09-06 14:16:00,
2013-09-06 09:21:00,74.7,69.6,29.94,ESE,110,0.0,9.0,84,0.00,,SKC,0.00,VWS V14.01,2013-09-06 14:21:00,
2013-09-06 09:26:00,74.9,69.4,29.94,West,269,1.0,9.0,83,0.00,,SKC,0.00,VWS V14.01,2013-09-06 14:26:00,
2013-09-06 09:31:00,75.0,69.1,29.94,ESE,115,0.0,9.0,82,0.00,,SKC,0.00,VWS V14.01,2013-09-06 14:31:00,
2013-09-06 09:36:00,75.3,69.4,29.94,ESE,111,0.0,9.0,82,0.00,,SKC,0.00,VWS V14.01,2013-09-06 14:36:00,
2013-09-06 09:41:00,75.6,69.7,29.94,ESE,111,0.0,9.0,82,0.00,,SKC,0.00,VWS V14.01,2013-09-06 14:41:00,
2013-09-06 09:46:00,76.1,70.2,29.93,East,96,0.0,9.0,82,0.00,,SKC,0.00,VWS V14.01,2013-09-06 14:46:00,
2013-09-06 09:51:00,77.1,70.1,29.93,East,98,6.0,9.0,79,0.00,,SKC,0.00,VWS V14.01,2013-09-06 14:51:00,
2013-09-06 09:56:00,78.3,70.1,29.93,ENE,70,1.0,9.0,76,0.00,,SKC,0.00,VWS V14.01,2013-09-06 14:56:00,
2013-09-06 10:01:00,79.1,69.3,29.93,ESE,108,1.0,11.0,72,0.00,,SKC,0.00,VWS V14.01,2013-09-06 15:01:00,
2013-09-06 10:06:00,79.7,69.5,29.93,ESE,104,1.0,11.0,71,0.00,,SKC,0.00,VWS V14.01,2013-09-06 15:06:00,
2013-09-06 10:11:00,80.2,69.5,29.93,East,98,0.0,11.0,70,0.00,,SKC,0.00,VWS V14.01,2013-09-06 15:11:00,
2013-09-06 10:16:00,80.7,69.2,29.93,West,261,5.0,11.0,68,0.00,,SKC,0.00,VWS V14.01,2013-09-06 15:16:00,
2013-09-06 10:21:00,81.0,68.6,29.92,ESE,113,4.0,11.0,66,0.00,,SKC,0.00,VWS V14.01,2013-09-06 15:21:00,
2013-09-06 10:26:00,81.1,68.2,29.92,East,82,3.0,11.0,65,0.00,,SKC,0.00,VWS V14.01,2013-09-06 15:26:00,
2013-09-06 10:31:00,81.4,68.1,29.92,WSW,250,4.0,11.0,64,0.00,,SKC,0.00,VWS V14.01,2013-09-06 15:31:00,
2013-09-06 10:36:00,81.8,68.0,29.93,SW,214,0.0,15.0,63,0.00,,SKC,0.00,VWS V14.01,2013-09-06 15:36:00,
2013-09-06 10:41:00,82.1,68.7,29.92,SSW,213,3.0,15.0,64,0.00,,SKC,0.00,VWS V14.01,2013-09-06 15:41:00,
2013-09-06 10:46:00,82.2,68.4,29.92,NE,37,0.0,15.0,63,0.00,,SKC,0.00,VWS V14.01,2013-09-06 15:46:00,
2013-09-06 10:51:00,82.3,68.0,29.92,ESE,115,8.0,15.0,62,0.00,,SKC,0.00,VWS V14.01,2013-09-06 15:51:00,
2013-09-06 10:56:00,82.2,67.9,29.92,ESE,121,6.0,15.0,62,0.00,,SKC,0.00,VWS V14.01,2013-09-06 15:56:00,
2013-09-06 11:01:00,82.3,67.5,29.92,NE,34,0.0,6.0,61,0.00,,SKC,0.00,VWS V14.01,2013-09-06 16:01:00,
2013-09-06 11:06:00,82.7,67.9,29.91,ESE,117,5.0,7.0,61,0.00,,SKC,0.00,VWS V14.01,2013-09-06 16:06:00,
2013-09-06 11:11:00,82.7,67.4,29.91,ESE,117,8.0,11.0,60,0.00,,SKC,0.00,VWS V14.01,2013-09-06 16:11:00,
2013-09-06 11:16:00,82.5,67.2,29.91,South,179,4.0,11.0,60,0.00,,SKC,0.00,VWS V14.01,2013-09-06 16:16:00,
2013-09-06 11:21:00,82.4,67.1,29.91,East,98,5.0,11.0,60,0.00,,SKC,0.00,VWS V14.01,2013-09-06 16:21:00,
2013-09-06 11:26:00,82.8,66.5,29.91,East,101,5.0,11.0,58,0.00,,SKC,0.00,VWS V14.01,2013-09-06 16:26:00,
2013-09-06 11:31:00,83.5,66.7,29.90,NNW,338,0.0,4.0,57,0.00,,SKC,0.00,VWS V14.01,2013-09-06 16:31:00,
2013-09-06 11:36:00,83.9,65.5,29.90,ESE,121,0.0,9.0,54,0.00,,SKC,0.00,VWS V14.01,2013-09-06 16:36:00,
2013-09-06 11:41:00,84.3,65.9,29.90,ESE,108,0.0,9.0,54,0.00,,SKC,0.00,VWS V14.01,2013-09-06 16:41:00,
2013-09-06 11:46:00,84.7,65.7,29.90,ENE,76,4.0,9.0,53,0.00,,SKC,0.00,VWS V14.01,2013-09-06 16:46:00,
2013-09-06 11:51:00,85.2,66.7,29.90,East,84,0.0,9.0,54,0.00,,SKC,0.00,VWS V14.01,2013-09-06 16:51:00,
2013-09-06 11:56:00,85.5,65.9,29.90,ENE,71,4.0,9.0,52,0.00,,SKC,0.00,VWS V14.01,2013-09-06 16:56:00,
2013-09-06 12:01:00,85.1,65.5,29.90,SW,227,1.0,8.0,52,0.00,,SKC,0.00,VWS V14.01,2013-09-06 17:01:00,
2013-09-06 12:06:00,84.7,65.7,29.89,ENE,57,1.0,8.0,53,0.00,,SKC,0.00,VWS V14.01,2013-09-06 17:06:00,
2013-09-06 12:11:00,84.8,66.3,29.89,SW,229,0.0,12.0,54,0.00,,SKC,0.00,VWS V14.01,2013-09-06 17:11:00,
2013-09-06 12:16:00,84.9,66.4,29.89,ESE,115,7.0,12.0,54,0.00,,SKC,0.00,VWS V14.01,2013-09-06 17:16:00,
2013-09-06 12:21:00,85.1,66.6,29.89,ESE,121,0.0,12.0,54,0.00,,SKC,0.00,VWS V14.01,2013-09-06 17:21:00,
2013-09-06 12:26:00,85.4,66.9,29.88,East,99,5.0,12.0,54,0.00,,SKC,0.00,VWS V14.01,2013-09-06 17:26:00,
2013-09-06 12:31:00,85.7,67.2,29.88,East,94,5.0,8.0,54,0.00,,SKC,0.00,VWS V14.01,2013-09-06 17:31:00,
2013-09-06 12:36:00,85.9,67.3,29.88,ESE,107,4.0,9.0,54,0.00,,SKC,0.00,VWS V14.01,2013-09-06 17:36:00,
2013-09-06 12:41:00,86.1,67.0,29.87,East,86,0.0,13.0,53,0.00,,SKC,0.00,VWS V14.01,2013-09-06 17:41:00,
2013-09-06 12:46:00,86.2,66.5,29.87,SE,146,4.0,13.0,52,0.00,,SKC,0.00,VWS V14.01,2013-09-06 17:46:00,
2013-09-06 12:51:00,86.4,67.3,29.87,ENE,72,4.0,13.0,53,0.00,,SKC,0.00,VWS V14.01,2013-09-06 17:51:00,
2013-09-06 12:56:00,86.5,66.8,29.87,NE,34,0.0,13.0,52,0.00,,SKC,0.00,VWS V14.01,2013-09-06 17:56:00,
2013-09-06 13:01:00,86.8,67.1,29.87,East,95,2.0,8.0,52,0.00,,SKC,0.00,VWS V14.01,2013-09-06 18:01:00,
2013-09-06 13:06:00,87.2,66.9,29.87,SE,141,1.0,11.0,51,0.00,,SKC,0.00,VWS V14.01,2013-09-06 18:06:00,
2013-09-06 13:11:00,87.3,67.0,29.87,ENE,63,3.0,11.0,51,0.00,,SKC,0.00,VWS V14.01,2013-09-06 18:11:00,
2013-09-06 13:16:00,87.6,67.2,29.87,ENE,74,7.0,11.0,51,0.00,,SKC,0.00,VWS V14.01,2013-09-06 18:16:00,
2013-09-06 13:21:00,87.7,66.8,29.86,North,5,0.0,11.0,50,0.00,,SKC,0.00,VWS V14.01,2013-09-06 18:21:00,
2013-09-06 13:26:00,87.8,66.9,29.86,ESE,114,0.0,11.0,50,0.00,,SKC,0.00,VWS V14.01,2013-09-06 18:26:00,
2013-09-06 13:31:00,88.2,67.2,29.86,South,172,0.0,7.0,50,0.00,,SKC,0.00,VWS V14.01,2013-09-06 18:31:00,
2013-09-06 13:36:00,88.6,67.6,29.86,ESE,103,7.0,7.0,50,0.00,,SKC,0.00,VWS V14.01,2013-09-06 18:36:00,
2013-09-06 13:41:00,88.5,66.3,29.85,SE,126,6.0,7.0,48,0.00,,SKC,0.00,VWS V14.01,2013-09-06 18:41:00,
2013-09-06 13:46:00,88.3,66.1,29.85,NNE,32,0.0,12.0,48,0.00,,SKC,0.00,VWS V14.01,2013-09-06 18:46:00,
2013-09-06 13:51:00,88.4,66.8,29.85,SE,131,6.0,12.0,49,0.00,,SKC,0.00,VWS V14.01,2013-09-06 18:51:00,
2013-09-06 13:56:00,88.6,67.6,29.84,SSE,161,0.0,12.0,50,0.00,,SKC,0.00,VWS V14.01,2013-09-06 18:56:00,
2013-09-06 14:01:00,89.0,66.8,29.84,ESE,111,1.0,6.0,48,0.00,,SKC,0.00,VWS V14.01,2013-09-06 19:01:00,
2013-09-06 14:06:00,89.5,67.2,29.84,ESE,102,1.0,9.0,48,0.00,,SKC,0.00,VWS V14.01,2013-09-06 19:06:00,
2013-09-06 14:11:00,89.2,66.3,29.84,ESE,108,0.0,11.0,47,0.00,,SKC,0.00,VWS V14.01,2013-09-06 19:11:00,
2013-09-06 14:16:00,89.2,66.3,29.84,ESE,111,4.0,11.0,47,0.00,,SKC,0.00,VWS V14.01,2013-09-06 19:16:00,
2013-09-06 14:21:00,88.8,66.0,29.84,SE,132,0.0,11.0,47,0.00,,SKC,0.00,VWS V14.01,2013-09-06 19:21:00,
2013-09-06 14:26:00,88.2,66.7,29.84,East,98,0.0,11.0,49,0.00,,SKC,0.00,VWS V14.01,2013-09-06 19:26:00,
2013-09-06 14:31:00,88.2,66.7,29.84,ESE,117,2.0,5.0,49,0.00,,SKC,0.00,VWS V14.01,2013-09-06 19:31:00,
2013-09-06 14:36:00,88.2,66.7,29.83,NE,35,0.0,6.0,49,0.00,,SKC,0.00,VWS V14.01,2013-09-06 19:36:00,
2013-09-06 14:41:00,88.1,66.6,29.83,North,360,1.0,10.0,49,0.00,,SKC,0.00,VWS V14.01,2013-09-06 19:41:00,
2013-09-06 14:46:00,88.2,66.1,29.83,North,9,2.0,10.0,48,0.00,,SKC,0.00,VWS V14.01,2013-09-06 19:46:00,
2013-09-06 14:51:00,88.1,66.0,29.83,East,88,5.0,10.0,48,0.00,,SKC,0.00,VWS V14.01,2013-09-06 19:51:00,
2013-09-06 14:56:00,87.9,66.4,29.83,ESE,119,0.0,10.0,49,0.00,,SKC,0.00,VWS V14.01,2013-09-06 19:56:00,
2013-09-06 15:01:00,88.0,65.9,29.83,ESE,106,6.0,9.0,48,0.00,,SKC,0.00,VWS V14.01,2013-09-06 20:01:00,
2013-09-06 15:06:00,88.2,66.7,29.82,SE,129,0.0,9.0,49,0.00,,SKC,0.00,VWS V14.01,2013-09-06 20:06:00,
2013-09-06 15:11:00,88.5,66.3,29.82,ESE,110,2.0,13.0,48,0.00,,SKC,0.00,VWS V14.01,2013-09-06 20:11:00,
2013-09-06 15:16:00,88.7,66.5,29.82,NW,313,1.0,13.0,48,0.00,,SKC,0.00,VWS V14.01,2013-09-06 20:16:00,
2013-09-06 15:21:00,89.1,66.3,29.82,ESE,107,0.0,13.0,47,0.00,,SKC,0.00,VWS V14.01,2013-09-06 20:21:00,
2013-09-06 15:26:00,89.1,66.3,29.82,East,93,2.0,13.0,47,0.00,,SKC,0.00,VWS V14.01,2013-09-06 20:26:00,
2013-09-06 15:31:00,89.3,66.4,29.82,ESE,111,1.0,5.0,47,0.00,,SKC,0.00,VWS V14.01,2013-09-06 20:31:00,
2013-09-06 15:36:00,89.6,66.7,29.82,SE,139,6.0,8.0,47,0.00,,SKC,0.00,VWS V14.01,2013-09-06 20:36:00,
2013-09-06 15:41:00,89.3,66.4,29.81,East,96,1.0,8.0,47,0.00,,SKC,0.00,VWS V14.01,2013-09-06 20:41:00,
2013-09-06 15:46:00,89.3,66.4,29.81,ESE,122,1.0,8.0,47,0.00,,SKC,0.00,VWS V14.01,2013-09-06 20:46:00,
2013-09-06 15:51:00,89.3,66.4,29.81,ESE,108,0.0,9.0,47,0.00,,SKC,0.00,VWS V14.01,2013-09-06 20:51:00,
2013-09-06 15:56:00,89.6,66.7,29.81,NE,54,3.0,9.0,47,0.00,,SKC,0.00,VWS V14.01,2013-09-06 20:56:00,
2013-09-06 16:01:00,89.9,66.4,29.80,NE,44,0.0,8.0,46,0.00,,SKC,0.00,VWS V14.01,2013-09-06 21:01:00,
2013-09-06 16:06:00,89.8,66.3,29.80,ESE,112,1.0,8.0,46,0.00,,SKC,0.00,VWS V14.01,2013-09-06 21:06:00,
2013-09-06 16:11:00,89.8,66.9,29.80,ESE,113,1.0,8.0,47,0.00,,SKC,0.00,VWS V14.01,2013-09-06 21:11:00,
2013-09-06 16:16:00,89.9,67.0,29.80,South,176,1.0,8.0,47,0.00,,SKC,0.00,VWS V14.01,2013-09-06 21:16:00,
2013-09-06 16:25:00,89.9,67.0,29.79,ESE,119,6.0,-999.0,47,-99.99,,,0.00,weatherlink.com 1.10,2013-09-06 21:25:00,
2013-09-06 16:30:00,89.6,67.3,29.79,ESE,123,6.0,6.0,48,0.00,,SKC,0.00,VWS V14.01,2013-09-06 21:30:00,
2013-09-06 16:35:00,89.3,67.1,29.79,East,91,1.0,8.0,48,0.00,,SKC,0.00,VWS V14.01,2013-09-06 21:35:00,
2013-09-06 16:41:00,88.9,67.3,29.80,WSW,250,1.0,8.0,49,0.00,,SKC,0.00,VWS V14.01,2013-09-06 21:41:00,
2013-09-06 16:46:00,88.6,67.6,29.79,ESE,108,0.0,8.0,50,0.00,,SKC,0.00,VWS V14.01,2013-09-06 21:46:00,
2013-09-06 16:54:00,88.9,67.9,29.79,SE,127,0.0,8.0,50,0.00,,SKC,0.00,VWS V14.01,2013-09-06 21:54:00,
2013-09-06 16:59:00,88.9,67.3,29.79,ESE,107,1.0,2.0,49,0.00,,SKC,0.00,VWS V14.01,2013-09-06 21:59:00,
2013-09-06 17:04:00,88.9,67.3,29.79,SW,236,5.0,7.0,49,0.00,,SKC,0.00,VWS V14.01,2013-09-06 22:04:00,
2013-09-06 17:09:00,89.1,67.5,29.79,NW,319,0.0,7.0,49,0.00,,SKC,0.00,VWS V14.01,2013-09-06 22:09:00,
2013-09-06 17:14:00,89.1,67.5,29.79,East,100,6.0,11.0,49,0.00,,SKC,0.00,VWS V14.01,2013-09-06 22:14:00,
2013-09-06 17:19:00,89.1,67.5,29.79,East,94,0.0,11.0,49,0.00,,SKC,0.00,VWS V14.01,2013-09-06 22:19:00,
2013-09-06 17:24:00,89.3,67.7,29.79,SE,126,1.0,11.0,49,0.00,,SKC,0.00,VWS V14.01,2013-09-06 22:24:00,
2013-09-06 17:29:00,89.5,67.8,29.79,South,177,0.0,6.0,49,0.00,,SKC,0.00,VWS V14.01,2013-09-06 22:29:00,
2013-09-06 17:34:00,89.3,67.7,29.79,ESE,116,1.0,8.0,49,0.00,,SKC,0.00,VWS V14.01,2013-09-06 22:34:00,
2013-09-06 17:40:00,89.1,68.1,29.79,South,184,2.0,8.0,50,0.00,,SKC,0.00,VWS V14.01,2013-09-06 22:40:00,
2013-09-06 17:45:00,89.0,68.0,29.79,East,92,0.0,8.0,50,0.00,,SKC,0.00,VWS V14.01,2013-09-06 22:45:00,
2013-09-06 17:50:00,88.9,67.3,29.79,East,86,0.0,8.0,49,0.00,,SKC,0.00,VWS V14.01,2013-09-06 22:50:00,
2013-09-06 17:55:00,88.9,67.9,29.79,ESE,123,4.0,8.0,50,0.00,,SKC,0.00,VWS V14.01,2013-09-06 22:55:00,
2013-09-06 18:00:00,88.7,67.7,29.78,SE,130,4.0,5.0,50,0.00,,SKC,0.00,VWS V14.01,2013-09-06 23:00:00,
2013-09-06 18:05:00,88.3,67.9,29.78,ESE,110,0.0,6.0,51,0.00,,SKC,0.00,VWS V14.01,2013-09-06 23:05:00,
2013-09-06 18:10:00,88.0,68.2,29.78,ESE,111,0.0,6.0,52,0.00,,SKC,0.00,VWS V14.01,2013-09-06 23:10:00,
2013-09-06 18:15:00,87.7,67.9,29.78,ESE,109,0.0,6.0,52,0.00,,SKC,0.00,VWS V14.01,2013-09-06 23:15:00,
2013-09-06 18:20:00,87.6,68.4,29.78,East,101,2.0,6.0,53,0.00,,SKC,0.00,VWS V14.01,2013-09-06 23:20:00,
2013-09-06 18:25:00,87.5,68.3,29.78,East,99,0.0,6.0,53,0.00,,SKC,0.00,VWS V14.01,2013-09-06 23:25:00,
2013-09-06 18:30:00,87.3,68.1,29.78,ESE,116,1.0,6.0,53,0.00,,SKC,0.00,VWS V14.01,2013-09-06 23:30:00,
2013-09-06 18:35:00,87.2,68.0,29.78,ESE,110,5.0,6.0,53,0.00,,SKC,0.00,VWS V14.01,2013-09-06 23:35:00,
2013-09-06 18:40:00,87.0,68.4,29.78,ESE,107,0.0,6.0,54,0.00,,SKC,0.00,VWS V14.01,2013-09-06 23:40:00,
2013-09-06 18:45:00,86.8,68.7,29.78,SE,145,0.0,6.0,55,0.00,,SKC,0.00,VWS V14.01,2013-09-06 23:45:00,
2013-09-06 18:50:00,86.5,68.4,29.78,East,98,0.0,6.0,55,0.00,,SKC,0.00,VWS V14.01,2013-09-06 23:50:00,
2013-09-06 18:55:00,86.3,68.8,29.78,ESE,106,0.0,6.0,56,0.00,,SKC,0.00,VWS V14.01,2013-09-06 23:55:00,
2013-09-06 19:00:00,86.0,68.5,29.78,ESE,106,0.0,1.0,56,0.00,,SKC,0.00,VWS V14.01,2013-09-07 00:00:00,
2013-09-06 19:05:00,85.7,68.7,29.78,ESE,107,1.0,5.0,57,0.00,,SKC,0.00,VWS V14.01,2013-09-07 00:05:00,
2013-09-06 19:10:00,85.4,68.4,29.78,ESE,107,0.0,5.0,57,0.00,,SKC,0.00,VWS V14.01,2013-09-07 00:10:00,
2013-09-06 19:15:00,85.1,68.2,29.78,ESE,107,0.0,5.0,57,0.00,,SKC,0.00,VWS V14.01,2013-09-07 00:15:00,
2013-09-06 19:20:00,84.9,68.5,29.78,ESE,107,0.0,5.0,58,0.00,,SKC,0.00,VWS V14.01,2013-09-07 00:20:00,
2013-09-06 19:25:00,84.6,68.2,29.78,ESE,107,0.0,5.0,58,0.00,,SKC,0.00,VWS V14.01,2013-09-07 00:25:00,
2013-09-06 19:30:00,84.3,68.4,29.78,ESE,107,0.0,1.0,59,0.00,,SKC,0.00,VWS V14.01,2013-09-07 00:30:00,
2013-09-06 19:35:00,84.1,68.2,29.78,ESE,107,0.0,1.0,59,0.00,,SKC,0.00,VWS V14.01,2013-09-07 00:35:00,
2013-09-06 19:40:00,83.8,68.0,29.78,ESE,107,0.0,1.0,59,0.00,,SKC,0.00,VWS V14.01,2013-09-07 00:40:00,
2013-09-06 19:45:00,83.6,68.3,29.78,ESE,107,0.0,1.0,60,0.00,,SKC,0.00,VWS V14.01,2013-09-07 00:45:00,
2013-09-06 19:50:00,83.3,68.0,29.77,ESE,107,0.0,1.0,60,0.00,,SKC,0.00,VWS V14.01,2013-09-07 00:50:00,
2013-09-06 19:55:00,83.1,68.3,29.77,ESE,107,0.0,1.0,61,0.00,,SKC,0.00,VWS V14.01,2013-09-07 00:55:00,
2013-09-06 20:00:00,82.9,68.1,29.77,ESE,107,0.0,0.0,61,0.00,,SKC,0.00,VWS V14.01,2013-09-07 01:00:00,
2013-09-06 20:05:00,82.6,67.8,29.77,ESE,107,0.0,1.0,61,0.00,,SKC,0.00,VWS V14.01,2013-09-07 01:05:00,
2013-09-06 20:10:00,82.4,68.1,29.78,ESE,107,0.0,1.0,62,0.00,,SKC,0.00,VWS V14.01,2013-09-07 01:10:00,
2013-09-06 20:15:00,82.1,67.8,29.78,ESE,107,0.0,1.0,62,0.00,,SKC,0.00,VWS V14.01,2013-09-07 01:15:00,
2013-09-06 20:20:00,81.8,68.0,29.78,ESE,107,0.0,1.0,63,0.00,,SKC,0.00,VWS V14.01,2013-09-07 01:20:00,
2013-09-06 20:25:00,81.4,67.6,29.78,ESE,107,0.0,1.0,63,0.00,,SKC,0.00,VWS V14.01,2013-09-07 01:25:00,
2013-09-06 20:30:00,81.1,67.8,29.78,ESE,107,0.0,0.0,64,0.00,,SKC,0.00,VWS V14.01,2013-09-07 01:30:00,
2013-09-06 20:35:00,80.8,67.9,29.78,ESE,107,0.0,1.0,65,0.00,,SKC,0.00,VWS V14.01,2013-09-07 01:35:00,
2013-09-06 20:40:00,80.6,67.8,29.78,ESE,107,0.0,4.0,65,0.00,,SKC,0.00,VWS V14.01,2013-09-07 01:40:00,
2013-09-06 20:45:00,80.6,67.8,29.78,ESE,107,0.0,4.0,65,0.00,,SKC,0.00,VWS V14.01,2013-09-07 01:45:00,
2013-09-06 20:50:00,80.6,67.8,29.78,ESE,107,0.0,4.0,65,0.00,,SKC,0.00,VWS V14.01,2013-09-07 01:50:00,
2013-09-06 20:55:00,80.7,67.8,29.78,ESE,107,0.0,4.0,65,0.00,,SKC,0.00,VWS V14.01,2013-09-07 01:55:00,
2013-09-06 21:00:00,80.7,67.8,29.78,ESE,107,0.0,0.0,65,0.00,,SKC,0.00,VWS V14.01,2013-09-07 02:00:00,
2013-09-06 21:05:00,80.6,67.8,29.78,ESE,107,0.0,1.0,65,0.00,,SKC,0.00,VWS V14.01,2013-09-07 02:05:00,
2013-09-06 21:10:00,80.5,67.7,29.78,ESE,107,0.0,1.0,65,0.00,,SKC,0.00,VWS V14.01,2013-09-07 02:10:00,
2013-09-06 21:15:00,80.2,67.8,29.78,ESE,107,0.0,1.0,66,0.00,,SKC,0.00,VWS V14.01,2013-09-07 02:15:00,
2013-09-06 21:20:00,79.8,67.4,29.78,ESE,107,0.0,1.0,66,0.00,,SKC,0.00,VWS V14.01,2013-09-07 02:20:00,
2013-09-06 21:25:00,79.5,67.6,29.78,ESE,107,0.0,1.0,67,0.00,,SKC,0.00,VWS V14.01,2013-09-07 02:25:00,
2013-09-06 21:30:00,79.3,67.4,29.78,ESE,107,0.0,0.0,67,0.00,,SKC,0.00,VWS V14.01,2013-09-07 02:30:00,
2013-09-06 21:35:00,79.1,67.6,29.78,ESE,107,0.0,1.0,68,0.00,,SKC,0.00,VWS V14.01,2013-09-07 02:35:00,
2013-09-06 21:40:00,79.0,67.6,29.78,ESE,107,0.0,1.0,68,0.00,,SKC,0.00,VWS V14.01,2013-09-07 02:40:00,
2013-09-06 21:45:00,78.9,67.4,29.78,ESE,107,0.0,1.0,68,0.00,,SKC,0.00,VWS V14.01,2013-09-07 02:45:00,
2013-09-06 21:50:00,78.9,67.4,29.78,ESE,107,1.0,1.0,68,0.00,,SKC,0.00,VWS V14.01,2013-09-07 02:50:00,
2013-09-06 21:55:00,78.9,67.4,29.78,ESE,107,0.0,1.0,68,0.00,,SKC,0.00,VWS V14.01,2013-09-07 02:55:00,
2013-09-06 22:00:00,78.9,67.4,29.78,ESE,107,0.0,0.0,68,0.00,,SKC,0.00,VWS V14.01,2013-09-07 03:00:00,
2013-09-06 22:05:00,79.0,67.6,29.78,ESE,107,0.0,4.0,68,0.00,,SKC,0.00,VWS V14.01,2013-09-07 03:05:00,
2013-09-06 22:10:00,79.1,67.6,29.78,ESE,107,0.0,4.0,68,0.00,,SKC,0.00,VWS V14.01,2013-09-07 03:10:00,
2013-09-06 22:15:00,79.0,67.6,29.78,ESE,107,0.0,4.0,68,0.00,,SKC,0.00,VWS V14.01,2013-09-07 03:15:00,
2013-09-06 22:20:00,78.9,67.0,29.77,ESE,107,0.0,4.0,67,0.00,,SKC,0.00,VWS V14.01,2013-09-07 03:20:00,
2013-09-06 22:25:00,78.9,67.4,29.78,ESE,107,0.0,4.0,68,0.00,,SKC,0.00,VWS V14.01,2013-09-07 03:25:00,
2013-09-06 22:30:00,78.8,67.4,29.78,ESE,107,0.0,0.0,68,0.00,,SKC,0.00,VWS V14.01,2013-09-07 03:30:00,
2013-09-06 22:35:00,78.7,67.3,29.78,ESE,107,0.0,1.0,68,0.00,,SKC,0.00,VWS V14.01,2013-09-07 03:35:00,
2013-09-06 22:40:00,78.6,67.2,29.78,ESE,107,0.0,1.0,68,0.00,,SKC,0.00,VWS V14.01,2013-09-07 03:40:00,
2013-09-06 22:45:00,78.5,67.1,29.78,ESE,107,0.0,1.0,68,0.00,,SKC,0.00,VWS V14.01,2013-09-07 03:45:00,
2013-09-06 22:50:00,78.2,67.2,29.78,ESE,107,0.0,1.0,69,0.00,,SKC,0.00,VWS V14.01,2013-09-07 03:50:00,
2013-09-06 22:55:00,78.0,67.0,29.78,ESE,107,0.0,1.0,69,0.00,,SKC,0.00,VWS V14.01,2013-09-07 03:55:00,
2013-09-06 23:00:00,77.8,66.8,29.78,ESE,107,0.0,0.0,69,0.00,,SKC,0.00,VWS V14.01,2013-09-07 04:00:00,
2013-09-06 23:01:00,77.8,66.8,29.78,ESE,107,0.0,0.0,69,0.00,,SKC,0.00,VWS V14.01,2013-09-07 04:01:00,
2013-09-06 23:02:00,77.8,66.8,29.78,ESE,107,0.0,0.0,69,0.00,,SKC,0.00,VWS V14.01,2013-09-07 04:02:00,
2013-09-06 23:07:00,77.6,67.1,29.78,ESE,107,0.0,1.0,70,0.00,,SKC,0.00,VWS V14.01,2013-09-07 04:07:00,
2013-09-06 23:12:00,77.6,67.1,29.78,ESE,107,0.0,1.0,70,0.00,,SKC,0.00,VWS V14.01,2013-09-07 04:12:00,
2013-09-06 23:17:00,77.5,66.9,29.77,ESE,107,0.0,1.0,70,0.00,,SKC,0.00,VWS V14.01,2013-09-07 04:17:00,
2013-09-06 23:22:00,77.5,66.9,29.78,ESE,107,0.0,1.0,70,0.00,,SKC,0.00,VWS V14.01,2013-09-07 04:22:00,
2013-09-06 23:27:00,77.4,66.9,29.77,ESE,107,0.0,1.0,70,0.00,,SKC,0.00,VWS V14.01,2013-09-07 04:27:00,
2013-09-06 23:32:00,77.3,66.8,29.77,ESE,107,0.0,1.0,70,0.00,,SKC,0.00,VWS V14.01,2013-09-07 04:32:00,
2013-09-06 23:37:00,77.2,67.1,29.77,ESE,107,0.0,1.0,71,0.00,,SKC,0.00,VWS V14.01,2013-09-07 04:37:00,
2013-09-06 23:42:00,77.1,67.0,29.77,ESE,107,0.0,1.0,71,0.00,,SKC,0.00,VWS V14.01,2013-09-07 04:42:00,
2013-09-06 23:47:00,76.9,66.8,29.77,ESE,107,0.0,1.0,71,0.00,,SKC,0.00,VWS V14.01,2013-09-07 04:47:00,
2013-09-06 23:52:00,76.7,67.0,29.77,ESE,107,0.0,2.0,72,0.00,,SKC,0.00,VWS V14.01,2013-09-07 04:52:00,
2013-09-06 23:57:00,76.5,66.8,29.77,ESE,107,0.0,2.0,72,0.00,,SKC,0.00,VWS V14.01,2013-09-07 04:57:00,